Location: Newark
(40.4881°N, 5.6117°W)
Time: 08:00:58
(UTC+00:00)

OTV 5 (USA 277) - Visible Passes

Search period start: 26 March 2019 00:00
Search period end: 05 April 2019 00:00
Orbit: 315 x 320 km, 54.5° (Epoch: 14 March)

Date Brightness Start Highest point End Pass type
(mag) Time Alt. Az. Time Alt. Az. Time Alt. Az.
31 Mar ? 05:08:01 10° S 05:10:15 23° SE 05:12:30 10° ENE visible
01 Apr ? 05:22:12 10° SW 05:24:50 76° SE 05:27:33 10° NE visible
02 Apr ? 04:05:50 14° ESE 04:05:50 14° ESE 04:07:01 10° E visible
03 Apr ? 04:20:15 39° ESE 04:20:15 39° ESE 04:22:33 10° ENE visible
04 Apr ? 04:34:34 58° NW 04:34:37 58° NW 04:37:19 10° NE visible
